カタログに戻る

ONEWEB-0531

運用中通信PO
NORAD 54146·PAYLOAD·🇬🇧 United Kingdom

打ち上げ Oct 22, 2022 から Satish Dhawan Space Centre

Loading…

次のパス (今後24時間)

TLE

最新Source: CelesTrak SupGP

元期: Sep 14, 2026, 13:45 UTC

1 54146C 22138AK  26257.57343009 -.00001330  00000+0 -32760-2 0  2574
2 54146  87.9135 256.6046 0001789 107.0811   3.0210 13.20772994    18

AllMySatでONEWEB-0531をリアルタイム追跡

Download on the App Store